AW757 Weather Reports


time (UTC)temp
C
wind
direction
speed
KPH
gust
KPH
rain 1hr
cm
rain 24hr
cm
rain mn
cm
humidity
%
barometer
mb
20260506201553 19 220 11.3 27.4 0.00 0.00 0.00 64 1017.9
20260506201516 19 173 11.3 27.4 0.00 0.00 0.00 64 1018.1
20260506200052 20 248 12.9 25.7 0.00 0.00 0.00 62 1017.8
20260506200010 20 241 12.9 25.7 0.00 0.00 0.00 62 1018.1
20260506194552 20 211 11.3 22.5 0.00 0.00 0.00 61 1017.9
20260506194516 20 227 11.3 22.5 0.00 0.00 0.00 61 1018.1
20260506193052 20 51 4.8 20.9 0.00 0.00 0.00 59 1018.0
20260506193022 20 200 4.8 20.9 0.00 0.00 0.00 59 1018.3
20260506191553 20 215 4.8 16.1 0.00 0.00 0.00 59 1018.1
20260506191522 20 181 3.2 16.1 0.00 0.00 0.00 59 1018.3
20260506190049 20 249 9.7 17.7 0.00 0.00 0.00 62 1018.2
20260506190024 20 246 8.0 17.7 0.00 0.00 0.00 61 1018.4
20260506184549 20 176 4.8 17.7 0.00 0.00 0.00 61 1018.3
20260506184523 20 222 4.8 17.7 0.00 0.00 0.00 61 1018.4
20260506183057 20 142 4.8 14.5 0.00 0.00 0.00 61 1018.3
20260506183015 20 192 4.8 14.5 0.00 0.00 0.00 61 1018.4
20260506181552 20 209 6.4 16.1 0.00 0.00 0.00 61 1018.5
20260506181517 20 221 6.4 16.1 0.00 0.00 0.00 61 1018.5
20260506180048 19 140 6.4 14.5 0.00 0.00 0.00 61 1018.7
20260506180020 19 215 4.8 14.5 0.00 0.00 0.00 61 1018.6
20260506174556 18 186 3.2 11.3 0.00 0.00 0.00 63 1018.7
20260506174521 18 145 3.2 11.3 0.00 0.00 0.00 63 1018.6
20260506173122 18 161 6.4 16.1 0.00 0.00 0.00 65 1018.7
20260506173007 18 206 8.0 16.1 0.00 0.00 0.00 65 1018.7
20260506171550 18 178 6.4 14.5 0.00 0.00 0.00 65 1018.7
20260506171531 18 155 8.0 14.5 0.00 0.00 0.00 65 1018.8
20260506170050 18 205 3.2 8.0 0.00 0.00 0.00 64 1018.8
20260506170028 18 197 4.8 8.0 0.00 0.00 0.00 65 1018.8
20260506164549 18 146 3.2 8.0 0.00 0.00 0.00 66 1018.6
20260506164540 18 162 1.6 8.0 0.00 0.00 0.00 66 1018.7
20260506163054 18 173 1.6 6.4 0.00 0.00 0.00 66 1018.5
20260506163019 18 167 3.2 6.4 0.00 0.00 0.00 66 1018.7
20260506161551 18 360 0.0 3.2 0.00 0.00 0.00 67 1018.6
20260506161510 18 5 0.0 3.2 0.00 0.00 0.00 67 1018.8
20260506160109 17 0 1.6 4.8 0.00 0.00 0.00 69 1018.7
20260506160008 17 347 0.0 4.8 0.00 0.00 0.00 69 1018.9
20260506154551 16 246 0.0 3.2 0.00 0.00 0.00 73 1018.8
20260506154508 16 268 0.0 3.2 0.00 0.00 0.00 73 1019.0
20260506153050 15 318 1.6 3.2 0.00 0.00 0.00 75 1018.8
20260506153008 15 266 3.2 3.2 0.00 0.00 0.00 75 1019.1
20260506151551 14 253 0.0 3.2 0.00 0.00 0.00 79 1018.8
20260506151515 14 261 0.0 3.2 0.00 0.00 0.00 79 1019.1
20260506150058 13 270 0.0 3.2 0.00 0.00 0.00 82 1018.9
20260506150011 13 281 0.0 3.2 0.00 0.00 0.00 82 1019.3
20260506144604 12 331 0.0 4.8 0.00 0.00 0.00 86 1018.9
20260506144522 12 318 0.0 4.8 0.00 0.00 0.00 86 1019.3
20260506143055 11 0 0.0 0.0 0.00 0.00 0.00 87 1018.8
20260506143014 11 300 0.0 0.0 0.00 0.00 0.00 87 1019.2
20260506141551 10 0 0.0 0.0 0.00 0.00 0.00 88 1018.7
20260506141528 10 325 0.0 0.0 0.00 0.00 0.00 88 1019.1
20260506140105 8 0 0.0 0.0 0.00 0.00 0.00 88 1018.6
20260506140014 8 326 0.0 0.0 0.00 0.00 0.00 88 1018.9
20260506134554 8 0 0.0 0.0 0.00 0.00 0.00 88 1018.6
20260506134512 8 337 0.0 0.0 0.00 0.00 0.00 88 1018.9
20260506133121 8 0 0.0 0.0 0.00 0.00 0.00 88 1018.6
20260506133011 8 163 0.0 0.0 0.00 0.00 0.00 88 1019.0
20260506131551 7 0 0.0 0.0 0.00 0.00 0.00 88 1018.4
20260506131518 7 325 0.0 0.0 0.00 0.00 0.00 88 1018.6
20260506130133 7 0 0.0 3.2 0.00 0.00 0.00 88 1018.1
20260506130022 7 338 0.0 3.2 0.00 0.00 0.00 88 1018.4
20260506124554 8 325 1.6 4.8 0.00 0.00 0.00 88 1018.1
20260506124522 8 325 1.6 4.8 0.00 0.00 0.00 88 1018.4
20260506123049 8 342 1.6 3.2 0.00 0.00 0.00 88 1017.9
20260506123024 8 342 1.6 3.2 0.00 0.00 0.00 88 1018.3
20260506121556 8 328 1.6 3.2 0.00 0.00 0.00 88 1018.2
20260506121520 8 331 1.6 3.2 0.00 0.00 0.00 88 1018.5
20260506120103 8 333 1.6 4.8 0.00 0.00 0.00 87 1018.1
20260506120033 8 333 1.6 4.8 0.00 0.00 0.00 87 1018.4
20260506114554 8 348 0.0 3.2 0.00 0.00 0.00 87 1018.2
20260506114513 8 349 0.0 3.2 0.00 0.00 0.00 87 1018.5
20260506113055 8 345 1.6 3.2 0.00 0.00 0.00 87 1018.2
20260506113012 8 345 1.6 3.2 0.00 0.00 0.00 87 1018.5
20260506111554 8 319 1.6 3.2 0.00 0.00 0.00 87 1018.3
20260506111524 8 333 1.6 3.2 0.00 0.00 0.00 87 1018.5
20260506110057 8 0 1.6 3.2 0.00 0.00 0.00 87 1018.2
20260506110029 8 51 0.0 3.2 0.00 0.00 0.00 87 1018.3
20260506104600 8 336 1.6 3.2 0.00 0.00 0.00 87 1018.3
20260506104536 8 337 0.0 3.2 0.00 0.00 0.00 87 1018.3
20260506103057 9 38 0.0 3.2 0.00 0.00 0.00 87 1018.2
20260506103037 9 38 0.0 3.2 0.00 0.00 0.00 87 1018.3
20260506101547 9 34 0.0 3.2 0.00 0.00 0.00 87 1018.2
20260506101522 9 27 0.0 3.2 0.00 0.00 0.00 87 1018.3
20260506100258 9 346 1.6 3.2 0.00 0.00 0.00 87 1018.0
20260506100021 9 346 1.6 3.2 0.00 0.00 0.00 87 1018.2
20260506094550 9 335 1.6 3.2 0.00 0.00 0.00 86 1018.2
20260506094516 9 335 0.0 3.2 0.00 0.00 0.00 86 1018.2
20260506093050 9 0 1.6 3.2 0.00 0.00 0.00 86 1018.2
20260506093027 9 54 1.6 3.2 0.00 0.00 0.00 86 1018.2
20260506091549 10 0 0.0 3.2 0.00 0.00 0.00 86 1018.3
20260506091528 9 341 0.0 3.2 0.00 0.00 0.00 86 1018.3
20260506090048 10 344 1.6 3.2 0.00 0.00 0.00 86 1018.4
20260506090025 10 352 1.6 3.2 0.00 0.00 0.00 86 1018.4
20260506084553 10 0 0.0 4.8 0.00 0.00 0.00 86 1018.5
20260506084534 10 346 0.0 4.8 0.00 0.00 0.00 86 1018.5
20260506083054 10 0 0.0 0.0 0.00 0.00 0.00 86 1018.6
20260506083006 10 346 0.0 0.0 0.00 0.00 0.00 86 1018.5
20260506081603 10 0 0.0 3.2 0.00 0.00 0.00 85 1018.6
20260506081503 10 340 0.0 3.2 0.00 0.00 0.00 85 1018.5
20260506073050 11 0 0.0 3.2 0.00 0.00 0.00 84 1018.4
20260506073018 11 342 0.0 3.2 0.00 0.00 0.00 84 1018.3
20260506071551 11 343 1.6 4.8 0.00 0.00 0.00 84 1018.4
20260506071521 11 346 1.6 4.8 0.00 0.00 0.00 84 1018.3
20260506061549 12 313 1.6 4.8 0.00 0.00 0.00 83 1018.0
20260506061504 12 313 1.6 4.8 0.00 0.00 0.00 83 1018.0
20260506044556 12 0 1.6 6.4 0.00 0.00 0.00 81 1017.3
20260506044514 12 317 1.6 6.4 0.00 0.00 0.00 81 1017.5
20260506043046 12 313 0.0 4.8 0.00 0.00 0.00 80 1017.2
20260506043008 12 325 0.0 4.8 0.00 0.00 0.00 80 1017.5
20260506041550 13 315 1.6 8.0 0.00 0.00 0.00 80 1017.1
20260506041504 13 295 0.0 8.0 0.00 0.00 0.00 80 1017.2
20260506040051 13 319 1.6 12.9 0.00 0.00 0.00 79 1016.8
20260506040017 13 98 1.6 11.3 0.00 0.00 0.00 79 1016.9
20260506034610 13 13 1.6 11.3 0.00 0.00 0.00 78 1016.6
20260506034512 13 272 1.6 9.7 0.00 0.00 0.00 78 1016.8
20260506033051 13 233 1.6 11.3 0.00 0.00 0.00 77 1016.4
20260506033017 13 315 1.6 11.3 0.00 0.00 0.00 77 1016.6
20260506031552 13 271 3.2 12.9 0.00 0.00 0.00 77 1016.2
20260506031516 13 315 3.2 12.9 0.00 0.00 0.00 77 1016.2
20260506030052 13 300 4.8 19.3 0.00 0.00 0.00 75 1015.9
20260506030015 13 302 4.8 19.3 0.00 0.00 0.00 75 1016.0
20260506024553 14 319 8.0 17.7 0.00 0.00 0.00 74 1015.7
20260506024512 14 273 8.0 17.7 0.00 0.00 0.00 73 1015.8
20260506023056 14 314 6.4 16.1 0.00 0.00 0.00 72 1015.5
20260506023010 15 258 8.0 16.1 0.00 0.00 0.00 72 1015.7
20260506021552 15 295 4.8 19.3 0.00 0.00 0.00 70 1015.3
20260506021532 15 302 6.4 19.3 0.00 0.00 0.00 70 1015.6
20260506020056 15 320 11.3 17.7 0.00 0.00 0.00 66 1015.2
20260506020025 16 317 11.3 17.7 0.00 0.00 0.00 66 1015.5
20260506014552 16 298 8.0 19.3 0.00 0.00 0.00 62 1015.1
20260506014524 16 294 8.0 19.3 0.00 0.00 0.00 61 1015.4
20260506013103 16 352 4.8 17.7 0.00 0.00 0.00 62 1015.1
20260506013030 16 298 4.8 17.7 0.00 0.00 0.00 62 1015.3
20260506011552 17 323 6.4 17.7 0.00 0.00 0.00 61 1015.1
20260506011518 17 304 4.8 17.7 0.00 0.00 0.00 60 1015.3
20260506010112 17 319 8.0 20.9 0.00 0.00 0.00 59 1015.1
20260506010018 17 304 8.0 20.9 0.00 0.00 0.00 59 1015.3
20260506004551 17 305 6.4 20.9 0.00 0.00 0.00 59 1015.1
20260506004515 17 290 6.4 20.9 0.00 0.00 0.00 59 1015.3
20260506003049 18 303 6.4 17.7 0.00 0.00 0.00 57 1014.9
20260506003014 18 305 6.4 17.7 0.00 0.00 0.00 58 1015.1
20260506001601 18 316 9.7 19.3 0.00 0.00 0.00 58 1014.7
20260506001527 18 320 9.7 19.3 0.00 0.00 0.00 58 1015.0
20260506000053 18 278 4.8 16.1 0.00 0.00 0.00 57 1014.8
20260506000026 18 269 3.2 16.1 0.00 0.00 0.00 57 1015.0
20260505234548 18 303 3.2 16.1 0.00 0.00 0.00 59 1014.7
20260505234525 18 298 3.2 16.1 0.00 0.00 0.00 58 1015.0
20260505233103 18 275 4.8 16.1 0.00 0.00 0.00 63 1014.9
20260505233012 18 247 6.4 16.1 0.00 0.00 0.00 65 1015.1
20260505231551 17 232 9.7 24.1 0.00 0.00 0.00 66 1014.7
20260505231522 17 221 11.3 24.1 0.00 0.00 0.00 66 1015.0
20260505230054 17 161 11.3 24.1 0.00 0.00 0.00 64 1015.0
20260505230022 17 224 8.0 24.1 0.00 0.00 0.00 64 1015.2
20260505224549 18 190 8.0 17.7 0.00 0.00 0.00 62 1015.2
20260505224516 18 252 8.0 17.7 0.00 0.00 0.00 61 1015.3
20260505223056 18 191 8.0 24.1 0.00 0.00 0.00 61 1015.3
20260505223014 18 218 9.7 24.1 0.00 0.00 0.00 61 1015.4
20260505221552 18 209 9.7 19.3 0.00 0.00 0.00 58 1015.4
20260505221518 18 213 11.3 19.3 0.00 0.00 0.00 58 1015.3
20260505220049 18 326 6.4 16.1 0.00 0.00 0.00 55 1015.4
20260505220012 18 328 4.8 16.1 0.00 0.00 0.00 55 1015.4
20260505214601 18 242 4.8 12.9 0.00 0.00 0.00 58 1015.7
20260505214507 18 256 4.8 12.9 0.00 0.00 0.00 60 1015.7
20260505213048 16 199 12.9 27.4 0.00 0.00 0.00 65 1015.8
20260505213016 16 266 12.9 27.4 0.00 0.00 0.00 65 1016.0
20260505211549 16 310 11.3 25.7 0.00 0.00 0.00 64 1015.7
20260505211513 16 248 8.0 25.7 0.00 0.00 0.00 64 1015.9
20260505210053 16 245 11.3 29.0 0.00 0.00 0.00 65 1015.7
20260505210014 16 283 11.3 29.0 0.00 0.00 0.00 65 1016.0
20260505204556 16 217 11.3 30.6 0.00 0.00 0.00 63 1015.9
20260505204513 16 194 11.3 30.6 0.00 0.00 0.00 63 1015.9
20260505203054 18 223 9.7 22.5 0.00 0.00 0.00 60 1015.9
20260505203017 17 242 8.0 22.5 0.00 0.00 0.00 60 1016.0